CAPE
0 0 0 0 0 0 0 0 0 0 0 0 0 0 0 0 0 0 0 0 0 0 0 0 0 0 0 0 0 0 0 0 0 0 0 0 0 0 0 0 0 0 0
0 0 0 0 0 0 0 0 0 0 0 0 0 0 0 0 0 0 0 0 0 0 0 0 0 0 0 0 0 0 0 0 0 0 0 0 0 0 0 0 0 0 0
0 0 0 0 0 0 0 0 0 0 0 0 0 0 0 0 0 0 0 0 0 0 0 0 0 0 0 0 0 0 0 0 0 0 0 1 0 0 0 0 0 0 0
0 0 0 0 0 0 0 0 0 0 0 0 0 0 0 0 0 0 0 0 0 0 0 0 0 0 0 0 0 0 0 0 0 0 1 0 0 0 1 0 0 0 0
0 0 0 0 0 0 0 0 0 0 0 0 0 0 0 0 0 0 0 0 0 0 0 0 0 0 0 0 0 0 0 0 0 0 0 0 0 0 3 1 0 0 0
0 0 0 0 0 0 0 0 0 0 0 0 0 0 0 0 0 0 0 0 0 0 0 0 0 0 0 0 0 0 0 0 0 0 0 0 0 0 4 5 1 3 0
0 0 0 0 0 0 0 0 0 0 0 0 0 0 0 0 0 0 0 0 0 0 0 0 0 0 0 0 0 0 0 0 0 0 0 0 0 0 0 1 2 2 0
0 0 0 0 0 0 0 0 0 0 0 0 0 0 0 0 0 0 0 0 0 0 0 0 0 0 0 0 0 0 0 0 0 0 0 0 0 0 3 4 3 2 2
0 0 0 0 0 0 0 0 0 0 0 0 0 0 0 0 0 0 0 0 0 0 0 0 0 0 0 0 0 0 0 0 0 0 0 0 0 0 0 0 7 10 4
0 0 0 0 0 0 0 0 0 0 0 0 0 0 0 0 0 0 0 0 0 0 0 0 0 0 0 0 0 0 0 0 0 0 0 0 0 0 0 0 0 1 11
0 0 0 0 0 0 0 0 0 0 0 0 0 0 0 0 0 0 0 0 0 0 0 0 0 0 0 0 0 0 0 0 0 0 0 0 0 0 0 0 0 0 0
0 0 0 0 0 0 0 0 0 0 0 0 0 0 0 0 0 0 0 0 0 0 0 0 0 0 0 0 0 0 0 0 0 0 0 0 0 0 0 0 0 0 0
0 0 0 0 0 0 0 0 0 0 0 0 0 0 0 0 0 0 0 0 0 0 0 0 0 0 0 0 0 0 0 0 0 0 0 0 0 0 0 9 0 0 0
0 0 0 0 0 0 0 0 0 0 0 0 0 0 0 0 0 0 0 0 0 0 0 0 0 0 0 0 0 0 0 0 0 0 0 0 0 0 0 15 3 0 0
0 0 0 0 0 0 0 0 0 0 0 0 0 0 0 0 0 0 0 0 0 0 0 0 0 0 0 0 0 0 0 0 0 0 0 0 0 0 6 21 13 0 2
0 0 0 0 0 0 0 0 0 0 0 0 0 0 0 0 0 0 0 0 0 0 0 0 0 0 0 0 0 0 0 0 0 0 0 0 0 0 0 13 7 9 3
0 0 0 0 0 0 0 0 0 0 0 0 0 0 0 0 0 0 0 0 0 0 0 0 0 0 0 0 0 0 0 0 0 0 0 0 0 0 0 2 0 0 2
0 0 0 0 0 0 0 0 0 0 0 0 0 0 0 0 0 0 0 0 0 0 0 0 0 0 0 0 0 0 0 0 0 0 0 0 0 0 1 0 0 0 0
0 0 0 0 0 0 0 0 0 0 0 0 0 0 0 0 0 0 0 0 0 0 0 0 0 0 0 0 0 0 0 0 0 0 0 0 0 0 0 0 0 0 0
0 0 0 0 0 0 0 0 0 0 0 0 0 0 0 0 0 0 0 0 0 0 0 0 0 0 0 0 0 0 0 0 0 0 0 0 0 0 0 0 0 0 0
0 0 0 0 0 0 0 0 0 0 0 0 0 0 0 0 0 0 0 0 0 0 0 0 0 0 0 0 0 0 0 0 0 0 0 0 0 0 0 0 0 0 0
0 0 0 0 0 0 0 0 0 0 0 0 0 0 0 0 0 0 0 0 0 0 0 0 0 0 0 0 0 0 0 0 0 0 0 0 0 0 0 0 0 0 0
0 0 0 0 0 0 0 0 0 0 0 0 0 0 0 0 0 0 0 0 0 0 0 0 0 0 0 0 0 0 1 0 0 0 0 0 0 0 0 0 0 0 0
0 0 0 0 0 0 0 0 0 0 0 0 0 0 0 0 0 0 0 0 0 0 0 0 0 0 0 0 0 0 0 0 0 0 0 0 0 0 0 0 0 0 0
0 0 0 0 0 0 0 0 0 0 0 0 0 0 0 0 0 0 0 0 0 0 0 0 0 0 0 0 0 0 0 0 0 0 0 0 0 0 0 0 0 0 0
0 0 0 0 0 0 0 0 0 0 0 0 0 0 0 0 0 0 0 0 0 0 0 0 0 0 0 0 0 0 0 0 0 0 0 0 0 0 0 0 0 0 0
CIN
-0 -0 -0 -0 -0 -0 -0 -0 -0 -0 -0 -0 -0 -0 -0 -0 -0 -0 -0 -0 -0 -0 -0 -0 -0 -0 -0 -0 -0 -0 -0 -0 -0 -0 -0 -0 -0 -0 -0 -0 -0 -0 -0
-0 -0 -0 -0 -0 -0 -0 -0 -0 -0 -0 -0 -0 -0 -0 -0 -0 -0 -0 -0 -0 -0 -0 -0 -0 -0 -0 -0 -0 -0 -0 -0 -0 -0 -0 -0 -0 -0 -0 -0 -0 -0 -0
-0 -0 -0 -0 -0 -0 -0 -0 -0 -0 -0 -0 -0 -0 -0 -0 -0 -0 -0 -0 -0 -0 -0 -0 -0 -0 -0 -0 -0 -0 -0 -0 -0 -0 -0 -0 -0 -0 -0 -0 -0 -0 -0
-0 -0 -0 -0 -0 -0 -0 -0 -0 -0 -0 -0 -0 -0 -0 -0 -0 -0 -0 -0 -0 -0 -0 -0 -0 -0 -0 -0 -0 -0 -0 -0 -1 -0 -9 -2 -0 -0 -0 -0 -0 -0 -0
-0 -0 -0 -0 -0 -0 -0 -0 -0 -0 -0 -0 -0 -0 -0 -0 -0 -0 -0 -0 -0 -0 -0 -0 -0 -0 -0 -0 -0 -0 -0 -0 -0 -0 -0 -0 -0 -0 -0 -1 -0 -0 -0
-0 -0 -0 -0 -0 -0 -0 -0 -0 -0 -0 -0 -0 -0 -0 -0 -0 -0 -0 -0 -0 -0 -0 -0 -0 -0 -0 -0 -0 -0 -0 -2 -0 -0 -0 -0 -0 -3 -2 -0 -0 -0 -0
-0 -0 -0 -0 -0 -0 -0 -0 -0 -0 -0 -0 -0 -0 -0 -0 -0 -0 -0 -0 -0 -0 -0 -0 -0 -0 -0 -0 -0 -0 -0 -0 -0 -0 -0 -0 -0 -11 -10 -1 -0 -1 -0
-0 -0 -0 -0 -0 -0 -0 -0 -0 -0 -0 -0 -0 -0 -0 -0 -0 -0 -0 -0 -0 -0 -0 -0 -0 -0 -0 -0 -0 -0 -0 -5 -0 -0 -0 -0 -9 -0 -15 -1 -0 -0 -0
-0 -0 -0 -0 -0 -0 -0 -0 -0 -0 -0 -0 -0 -0 -0 -0 -0 -0 -0 -0 -0 -0 -0 -0 -0 -0 -0 -0 -0 -0 -0 -0 -0 -0 -0 -0 -0 -0 -0 -0 -6 -1 -0
-0 -0 -0 -0 -0 -0 -0 -0 -0 -0 -0 -0 -0 -0 -0 -0 -0 -0 -0 -0 -0 -0 -0 -0 -0 -0 -0 -0 -0 -0 -0 -0 -0 -0 -0 -0 -0 -0 -0 -0 -0 -7 -1
-0 -0 -0 -0 -0 -0 -0 -0 -0 -0 -0 -0 -0 -0 -0 -0 -0 -0 -0 -0 -0 -0 -0 -0 -0 -0 -0 -0 -0 -0 -0 -0 -0 -0 -0 -0 -0 -0 -0 -0 -0 -0 -0
-0 -0 -0 -0 -0 -0 -0 -0 -0 -0 -0 -0 -0 -0 -0 -0 -0 -0 -0 -0 -0 -0 -0 -0 -0 -0 -0 -0 -0 -0 -0 -0 -0 -0 -0 -0 -0 -0 -0 -8 -0 -0 -0
-0 -0 -0 -0 -0 -0 -0 -0 -0 -0 -0 -0 -0 -0 -0 -0 -0 -0 -0 -0 -0 -0 -0 -0 -0 -0 -0 -0 -0 -0 -0 -0 -0 -0 -0 -0 -0 -0 -0 -6 -12 -0 -0
-0 -0 -0 -0 -0 -0 -0 -0 -0 -0 -0 -0 -0 -0 -0 -0 -0 -0 -0 -0 -0 -0 -0 -0 -0 -0 -0 -0 -0 -0 -0 -0 -0 -0 -0 -0 -0 -0 -1 -3 -12 -0 -0
-0 -0 -0 -0 -0 -0 -0 -0 -0 -0 -0 -0 -0 -0 -0 -0 -0 -0 -0 -0 -0 -0 -0 -0 -0 -0 -0 -0 -0 -0 -0 -0 -0 -0 -0 -0 -0 -0 -1 -1 -3 -6 -9
-0 -0 -0 -0 -0 -0 -0 -0 -0 -0 -0 -0 -0 -0 -0 -0 -0 -0 -0 -0 -0 -0 -0 -0 -0 -0 -0 -0 -0 -0 -0 -0 -0 -0 -0 -0 -0 -0 -0 -0 -0 -2 -1
-0 -0 -0 -0 -0 -0 -0 -0 -0 -0 -0 -0 -0 -0 -0 -0 -0 -0 -0 -0 -0 -0 -0 -0 -0 -0 -0 -0 -0 -0 -0 -0 -0 -0 -0 -0 -0 -0 -0 -3 -0 -0 -0
-0 -0 -0 -0 -0 -0 -0 -0 -0 -0 -0 -0 -0 -0 -0 -0 -0 -0 -0 -0 -0 -0 -0 -0 -0 -0 -0 -0 -0 -0 -0 -0 -0 -0 -0 -0 -0 -0 -2 -0 -0 -0 -0
-0 -0 -0 -0 -0 -0 -0 -0 -0 -0 -0 -0 -0 -0 -0 -0 -0 -0 -0 -0 -0 -0 -0 -0 -0 -0 -0 -0 -0 -0 -0 -0 -0 -0 -0 -0 -0 -0 -0 -0 -0 -0 -0
-0 -0 -0 -0 -0 -0 -0 -0 -0 -0 -0 -0 -0 -0 -0 -0 -0 -0 -0 -0 -0 -0 -0 -0 -0 -0 -0 -0 -0 -0 -0 -0 -0 -0 -0 -0 -0 -0 -0 -0 -0 -0 -0
-0 -0 -0 -0 -0 -0 -0 -0 -0 -0 -0 -0 -0 -0 -0 -0 -0 -0 -0 -0 -0 -0 -0 -0 -0 -0 -0 -0 -0 -0 -0 -0 -0 -0 -0 -0 -0 -0 -0 -0 -0 -0 -0
-0 -0 -0 -0 -0 -0 -0 -0 -0 -0 -0 -0 -0 -0 -0 -0 -0 -0 -0 -0 -0 -0 -0 -0 -0 -0 -0 -0 -0 -0 -0 -0 -2 -0 -0 -0 -0 -0 -0 -0 -0 -0 -0
-0 -0 -0 -0 -0 -0 -0 -0 -0 -0 -0 -0 -0 -0 -0 -0 -0 -0 -0 -0 -0 -0 -0 -0 -0 -0 -0 -0 -0 -0 -0 -0 -0 -0 -0 -0 -0 -0 -0 -0 -0 -0 -0
-0 -0 -0 -0 -0 -0 -0 -0 -0 -0 -0 -0 -0 -0 -0 -0 -0 -0 -0 -0 -0 -0 -0 -0 -0 -0 -0 -0 -0 -0 -0 -0 -0 -0 -0 -0 -0 -0 -0 -0 -0 -0 -0
-0 -0 -0 -0 -0 -0 -0 -0 -0 -0 -0 -0 -0 -0 -0 -0 -0 -0 -0 -0 -0 -0 -0 -0 -0 -0 -0 -0 -0 -0 -0 -0 -0 -0 -0 -0 -0 -0 -0 -0 -0 -0 -0
-0 -0 -0 -0 -0 -0 -0 -0 -0 -0 -0 -0 -0 -0 -0 -0 -0 -0 -0 -0 -0 -0 -0 -0 -0 -0 -0 -0 -0 -0 -0 -0 -0 -0 -0 -0 -0 -0 -0 -0 -0 -0 -0
Wind_Speed
16 18 17 16 15 14 14 14 14 14 14 15 15 15 16 15 15 16 18 18 19 20 22 23 23 25 28 29 27 29 32 35 35 37 40 35 34 32 39 33 36 34 39
16 16 16 15 13 13 13 13 12 12 13 14 14 14 14 14 14 14 16 18 18 19 21 23 26 27 28 30 31 31 31 31 35 36 34 36 34 39 37 35 34 35 37
15 16 14 13 12 12 12 11 11 11 11 12 13 13 13 12 14 14 15 16 17 19 20 22 26 27 27 30 31 31 32 32 34 33 33 36 39 44 34 35 34 36 35
14 14 13 12 11 11 11 10 10 10 10 11 11 12 12 13 13 13 15 15 16 18 19 20 24 25 26 28 29 30 31 31 34 34 31 30 35 39 40 33 34 34 34
13 12 11 10 10 10 9 9 8 9 9 10 9 11 11 12 13 14 14 15 17 17 18 19 23 23 24 26 28 29 30 29 31 33 32 31 32 31 33 37 39 35 34
9 9 9 8 8 8 7 7 6 7 7 7 8 9 9 11 11 12 13 15 17 18 19 19 22 22 22 23 26 27 27 28 28 28 28 30 31 29 28 30 25 34 33
7 7 8 7 6 6 5 5 6 5 6 6 7 7 7 9 9 10 12 14 16 17 17 18 20 21 21 22 23 25 27 26 25 25 23 22 21 18 11 11 7 16 19
7 7 6 7 5 4 4 4 4 4 5 5 5 5 6 7 8 9 10 12 14 15 16 17 18 19 19 21 22 22 25 24 23 19 18 13 14 11 8 15 13 14 19
7 8 7 7 6 5 5 5 4 4 4 4 4 4 5 6 7 8 10 11 12 14 14 16 17 17 19 19 21 20 24 22 20 17 14 10 9 9 13 15 14 14 10
5 6 7 8 7 6 6 6 5 5 4 4 3 4 4 5 5 7 9 10 11 12 13 15 15 16 18 18 21 20 20 21 19 16 14 10 7 9 13 13 13 11 7
2 4 6 7 8 7 7 7 7 6 5 4 3 3 3 3 5 6 7 9 10 12 12 13 14 15 17 17 19 19 18 21 18 15 16 11 9 10 15 13 13 14 10
5 4 5 6 7 8 8 8 8 7 6 5 4 3 2 3 4 5 6 7 9 11 12 13 14 15 16 16 17 18 18 20 20 17 16 13 11 11 13 13 15 16 14
9 6 5 6 7 7 8 8 9 9 7 6 4 3 2 2 2 3 5 6 8 10 11 12 12 14 14 15 16 17 18 19 18 16 15 14 14 13 14 15 16 17 15
12 9 7 7 7 7 8 8 8 9 8 7 5 4 4 3 2 2 4 6 8 9 10 11 11 13 13 14 16 17 18 18 17 16 13 14 13 10 11 15 16 15 15
16 12 8 7 7 7 7 7 8 8 8 8 7 6 4 3 2 1 3 5 6 7 8 10 10 12 12 13 13 15 17 17 16 16 14 13 11 12 13 14 15 16 15
19 13 11 9 8 8 7 7 8 9 8 9 8 7 5 4 3 2 2 4 5 6 7 8 9 10 11 11 12 13 15 16 15 14 13 13 12 12 13 13 13 14 14
25 15 12 10 8 8 7 8 7 7 8 9 8 7 6 4 3 2 1 2 3 5 6 7 8 9 10 10 10 11 14 15 14 13 12 13 12 11 13 14 14 12 12
28 23 14 12 10 8 8 7 6 7 8 8 8 7 6 5 3 2 1 1 3 4 5 6 6 8 8 9 10 11 14 14 13 13 12 12 12 12 12 15 15 14 13
29 29 24 13 12 10 8 8 7 7 8 9 8 7 6 5 4 3 2 1 2 3 4 6 6 7 7 8 9 10 13 13 13 14 12 12 12 11 11 13 14 15 14
31 30 28 21 14 12 10 9 9 8 9 9 8 6 6 6 5 4 2 1 2 3 4 5 5 6 6 7 8 9 12 13 13 12 13 12 12 11 10 11 12 13 14
28 29 27 25 20 15 12 12 11 10 9 9 8 7 7 7 6 5 3 3 3 3 4 5 5 6 6 5 6 8 11 12 12 13 12 13 13 11 11 11 11 11 12
29 28 28 27 23 18 14 14 13 12 12 11 11 10 8 8 7 6 5 4 4 4 4 5 6 5 5 5 5 7 9 10 10 11 12 12 12 12 11 11 11 12 14
31 29 29 29 25 19 15 16 16 15 13 13 13 12 10 9 8 7 6 6 5 6 5 5 5 5 6 7 6 6 7 10 12 10 11 11 11 12 12 12 12 14 14
35 32 30 31 31 24 18 16 18 16 15 14 14 13 12 11 10 9 8 8 6 6 6 5 5 5 6 7 8 10 11 12 13 12 11 10 10 10 10 12 13 14 15
38 35 34 33 35 31 26 20 18 16 16 16 16 14 14 13 11 11 9 9 8 6 6 5 5 5 5 7 8 8 9 10 10 11 11 12 13 13 14 13 14 14 15
41 39 38 36 38 34 32 27 22 19 18 18 17 16 15 14 13 12 12 10 8 7 6 5 5 5 7 7 7 8 9 10 11 12 12 12 13 13 13 13 13 14 14
Wind_Direction
149 141 131 121 116 119 116 117 107 97 84 79 73 69 65 66 62 61 55 51 48 44 40 37 33 29 23 21 19 16 11 8 4 -0 355 355 350 349 338 338 331 324 321
144 141 134 128 124 126 123 118 109 95 86 81 76 73 72 68 64 62 53 46 45 41 37 31 26 24 23 18 16 13 10 8 5 1 359 353 351 348 345 341 336 329 324
147 142 141 140 133 136 134 120 109 96 86 80 74 73 64 63 57 51 46 44 43 37 33 29 24 22 21 18 15 12 10 6 5 5 2 356 348 339 351 344 339 330 326
152 151 151 146 140 138 134 122 106 93 87 80 76 68 63 56 53 48 44 40 39 34 32 29 24 22 21 19 15 12 11 9 6 4 3 1 354 350 341 351 341 331 327
162 163 160 153 147 135 127 120 104 96 89 78 77 64 58 51 46 43 40 36 35 32 30 29 23 22 20 19 15 13 12 11 8 5 4 2 1 2 357 344 331 321 325
159 164 163 150 144 131 122 116 102 96 88 76 71 61 56 48 44 40 37 34 31 30 29 28 22 23 21 19 17 16 14 13 11 11 12 9 7 7 9 343 311 314 339
146 151 154 152 142 136 127 113 112 105 91 80 70 66 59 52 45 41 36 33 29 28 27 27 23 23 22 19 17 18 18 17 16 18 20 22 22 25 24 16 353 290 340
143 155 159 160 157 146 136 119 119 105 102 95 83 74 62 50 42 40 35 32 27 27 27 26 23 23 22 20 20 19 19 20 20 24 30 33 34 34 35 26 19 15 18
152 162 162 168 167 166 165 156 142 140 126 110 88 73 59 47 41 38 34 29 28 27 26 25 23 24 23 22 22 23 22 21 25 29 38 40 39 44 38 33 30 27 16
147 168 173 173 171 170 168 166 163 160 147 130 103 80 64 52 43 37 31 28 27 26 26 24 25 25 24 24 25 24 23 24 25 32 38 45 45 44 41 32 35 38 43
222 192 187 183 180 175 172 173 170 167 158 142 117 94 77 60 44 35 31 28 28 26 25 24 25 25 24 26 25 26 25 24 25 32 37 42 49 45 44 40 39 42 45
282 239 212 195 190 188 183 182 176 175 171 161 149 138 110 76 47 37 33 31 27 27 25 25 26 26 26 27 27 26 27 24 26 31 34 40 48 46 44 44 45 43 47
305 277 247 218 207 200 194 190 186 185 177 166 162 161 154 129 80 45 38 35 30 27 26 26 27 26 27 27 29 30 27 24 27 32 34 37 43 43 44 45 46 47 50
304 291 267 240 226 216 206 200 196 190 185 183 181 179 173 161 137 68 46 36 32 28 27 27 29 27 29 28 31 32 27 26 29 32 38 40 45 49 46 46 47 51 51
303 291 277 262 242 234 223 211 205 197 192 193 192 193 183 173 162 119 58 38 32 30 29 26 29 28 29 29 33 31 29 27 30 33 40 46 50 52 50 47 51 56 56
309 289 285 286 264 244 238 225 213 205 197 199 200 193 187 179 178 142 82 40 32 30 28 26 27 27 28 28 28 30 29 28 31 32 42 47 56 55 53 54 61 62 62
318 305 289 284 275 258 254 238 222 211 205 204 202 198 194 195 194 176 117 44 28 28 25 25 27 25 26 27 27 30 32 29 32 32 45 48 57 64 55 56 60 71 75
317 319 308 295 291 284 274 267 248 226 216 214 209 205 204 207 199 191 217 14 27 18 20 22 25 24 25 25 28 31 34 32 36 38 51 53 61 67 60 52 54 66 75
322 318 317 308 301 292 283 277 270 247 235 223 221 217 213 218 218 220 240 323 13 10 13 21 21 21 21 25 28 32 35 35 39 47 50 60 65 72 69 62 61 60 61
320 321 319 322 314 304 297 289 278 263 246 237 237 237 229 228 230 235 252 316 356 349 7 7 15 18 17 27 32 36 37 37 40 43 47 59 66 67 74 73 71 66 61
327 324 325 322 321 317 307 298 293 270 261 274 271 260 245 243 246 251 278 305 322 343 355 359 6 13 18 26 35 42 40 41 43 46 51 58 59 61 73 81 79 76 68
330 329 323 324 325 321 313 307 297 296 294 288 283 274 264 261 272 260 277 299 317 326 336 350 356 8 16 25 41 47 47 47 47 47 52 59 56 64 75 82 80 77 69
329 329 326 322 324 323 315 311 308 306 299 293 287 283 279 273 278 272 276 295 307 317 323 338 348 4 24 35 45 52 52 48 43 53 56 59 60 66 74 81 78 73 74
318 323 322 319 316 320 319 310 313 309 303 296 291 288 281 280 278 284 282 285 290 305 315 327 340 359 20 33 40 44 45 43 42 50 52 55 67 74 85 82 78 76 71
312 315 314 313 310 313 313 313 310 307 302 299 297 291 286 282 280 279 279 281 285 290 309 314 337 355 13 31 43 46 43 41 47 52 54 62 68 68 76 77 78 78 72
307 308 309 309 306 308 307 307 305 300 298 298 296 293 289 286 287 288 290 280 276 275 279 305 330 359 21 38 44 45 44 46 51 53 61 64 66 69 73 75 80 78 75